Taloyoak, Nunavut

4:25 AM MST on December 07, 2016 (GMT -0700)
Taloyoak

Weather History for CYYH - February, 2013

Change the Weather History Date:

Saturday, February 2, 2013

  Actual Average Record
Temperature  
Mean Temperature -30 °F -  
Max Temperature -27 °F -22 °F 6 °F (2000)
Min Temperature -34 °F -32 °F -47 °F (2015)
Degree Days  
Heating Degree Days 96    
Moisture  
Dew Point -40 °F    
Average Humidity 60    
Maximum Humidity 75    
Minimum Humidity 29    
Precipitation  
Precipitation 0.00 in - - ()
Sea Level Pressure  
Sea Level Pressure 29.44 in    
Wind  
Wind Speed 22 mph ()    
Max Wind Speed 31 mph    
Max Gust Speed 36 mph    
Visibility 3.8 miles    
Events Snow    
Averages and records for this station are not official NWS values.
T = Trace of Precipitation, MM = Missing Value Source: Averaged Metar Reports

Daily Weather History Graph

Daily Weather History Graph

Search for Another Location

Airport or City:

Trip Planner

Search our weather history database for the weather conditions in past years. The results will help you decide how hot, cold, wet, or windy it might be!

Date:

Astronomy

Feb. 02, 2013 Rise Set
Actual Time 9:45 AM CST 3:12 PM CST
Civil Twilight 8:25 AM CST 4:32 PM CST
Nautical Twilight 7:09 AM CST 5:47 PM CST
Astronomical Twilight 6:00 AM CST 6:57 PM CST
Moon 1:31 AM CST (2/2) 8:32 AM CST (2/2)
Length of Visible Light 8h 06m
Length of Day
5h 27m
Waning Gibbous, 59% of the Moon is Illuminated
Feb 2
Waning Gibbous
Feb 3
Last Quarter
Feb 10
New
Feb 17
First Quarter
Feb 25
Full

Hourly Weather History & Observations

Time (CST) Temp. Windchill Dew Point Humidity Pressure Visibility Wind Dir Wind Speed Gust Speed Precip Events Conditions
12:00 AM -27 °F - -37 °F 41% 29.47 in 5 mi WNW 23.0 mph - - Snow Snow
12:00 AM -27.4 °F -59.7 °F -36.4 °F 62% 29.47 in 5.0 mi WNW 23.0 mph - N/A Snow Ice Crystals
1:00 AM -27.4 °F -56.9 °F -32.8 °F 75% 29.47 in 8.0 mi NW 18.4 mph - N/A Snow Low Drifting Snow
2:00 AM -27.4 °F -56.1 °F -32.8 °F 75% 29.46 in 7.0 mi NNW 17.3 mph - N/A Snow Low Drifting Snow
2:48 AM - - - N/A% - 2.0 mi NW 26.5 mph - N/A   Ice Crystals
3:00 AM -29.2 °F -63.9 °F -34.6 °F 75% 29.44 in 2.0 mi NW 26.5 mph - N/A Snow Ice Crystals
3:04 AM - - - N/A% - 1.0 mi NW 31.1 mph - N/A   Ice Crystals
3:31 AM - - - N/A% - 0.8 mi NW 29.9 mph - N/A   Ice Crystals
4:00 AM -29.2 °F -62.7 °F -36.4 °F 68% 29.45 in 1.2 mi NW 24.2 mph 31.1 mph N/A Snow Ice Crystals
4:23 AM - - - N/A% - 2.5 mi NW 23.0 mph - N/A   Unknown
4:34 AM - - - N/A% - 1.0 mi NW 24.2 mph - N/A   Unknown
5:00 AM -32.8 °F -68.7 °F -38.2 °F 75% 29.44 in 1.2 mi NW 26.5 mph - N/A Snow Blowing Snow
5:27 AM - - - N/A% - 2.5 mi NW 20.7 mph - N/A   Unknown
6:00 AM -32 °F - -38 °F 58% 29.45 in 3 mi NW 20.7 mph - - Snow Blowing Snow
6:00 AM -31.0 °F -63.1 °F -38.2 °F 68% 29.45 in 3.0 mi NW 20.7 mph - N/A Snow Blowing Snow
7:00 AM -32.8 °F -64.7 °F -40.0 °F 68% 29.45 in 7.0 mi NW 19.6 mph - N/A Snow Low Drifting Snow
7:51 AM - - - N/A% - 2.0 mi NW 25.3 mph - N/A   Unknown
8:00 AM -32.8 °F -68.7 °F -38.2 °F 75% 29.43 in 2.0 mi NW 26.5 mph - N/A Snow Blowing Snow
9:00 AM -32.8 °F -68.1 °F -38.2 °F 75% 29.43 in 1.5 mi NW 25.3 mph - N/A Snow Blowing Snow
9:12 AM - - - N/A% - 0.8 mi NW 26.5 mph - N/A   Unknown
10:00 AM -32.8 °F -68.1 °F -43.6 °F 56% 29.43 in 1.0 mi NW 25.3 mph 31.1 mph N/A Snow Blowing Snow
11:00 AM -29.2 °F -65.5 °F -41.8 °F 51% 29.42 in 0.8 mi NW 29.9 mph 35.7 mph N/A Snow Blowing Snow
12:00 PM -33 °F - -45 °F 31% 29.41 in 1 mi NW 31.1 mph - - Snow Blowing Snow
12:00 PM -32.8 °F -70.9 °F -45.4 °F 50% 29.41 in 0.8 mi NW 31.1 mph - N/A Snow Blowing Snow
12:43 PM - - - N/A% - 1.0 mi NW 26.5 mph - N/A   Unknown
1:00 PM -34.6 °F -72.8 °F -47.2 °F 50% 29.42 in 1.0 mi NW 29.9 mph - N/A Snow Blowing Snow
2:00 PM -34.6 °F -72.3 °F -47.2 °F 50% 29.42 in 1.0 mi NW 28.8 mph - N/A Snow Blowing Snow
3:00 PM -34.6 °F -72.8 °F -47.2 °F 50% 29.43 in 0.8 mi NW 29.9 mph - N/A Snow Blowing Snow
4:00 PM -34.6 °F -71.1 °F -40.0 °F 75% 29.43 in 1.0 mi NW 26.5 mph 33.4 mph N/A Snow Blowing Snow
4:27 PM - - - N/A% - 1.5 mi NW 24.2 mph 29.9 mph N/A   Unknown
5:00 PM -34.6 °F -69.2 °F - N/A% 29.44 in 2.0 mi NW 23.0 mph 28.8 mph N/A Snow Blowing Snow
6:00 PM -34 °F - -47 °F 29% 29.44 in 2 mi NW 24.2 mph - - Snow Blowing Snow
6:00 PM -34.6 °F -69.9 °F -47.2 °F 50% 29.44 in 2.0 mi NW 24.2 mph - N/A Snow Blowing Snow
6:44 PM - - - N/A% - 7.0 mi NW 20.7 mph - N/A   Unknown
7:00 PM -32.8 °F -65.5 °F -45.4 °F 50% 29.45 in 7.0 mi NW 20.7 mph - N/A Snow Low Drifting Snow
8:00 PM -31.0 °F -60.0 °F -41.8 °F 56% 29.45 in 13.0 mi NW 16.1 mph - N/A Snow Low Drifting Snow
9:00 PM -29.2 °F -53.7 °F -41.8 °F 51% 29.45 in 15.0 mi NW 11.5 mph - N/A   Mostly Cloudy
10:00 PM -27.4 °F -49.0 °F -34.6 °F 69% 29.45 in 15.0 mi NW 9.2 mph - N/A   Scattered Clouds
11:00 PM -27.4 °F -53.5 °F -32.8 °F 75% 29.44 in 15.0 mi NW 13.8 mph - N/A Snow Low Drifting Snow